This demonstration page uses our WeatherBlox Daily Observations layout. Learn more.

39.29038, -76.61219

Hourly Observations for October 29, 2020

Temp ( °F °C ) Dew Point ( °F °C ) Humidity (%) Winds ( mph kmh ) Pressure ( in mb ) Visibility ( mi km ) Precip ( " mm )
12:54 am 00:54 Cloudy 60 15.6 53 11.7 78 78 E 7 11 29.95 1014 10 16.0934 0 0
1:54 am 01:54 Cloudy 60 15.6 53 11.7 78 78 ENE 6 9 29.92 1013 10 16.0934 0 0
2:54 am 02:54 Cloudy with Drizzle 60 15.6 53 11.7 78 78 ENE 8 13 29.91 1013 9 14.48406 0.001 0.001
3:54 am 03:54 Cloudy with Light Rain 59 15 54 12.2 83 83 NNE 6 9 29.88 1012 10 16.0934 0.01 0.254
4:18 am 04:18 Cloudy with Light Rain 59 15 54 12.2 83 83 NE 7 11 29.87 1011 9 14.48406 0.02 0.508
4:54 am 04:54 Cloudy with Light Rain 58 14.4 54 12.2 87 87 NE 7 11 29.86 1011 6 9.65604 0.06 1.524
5:54 am 05:54 Cloudy with Light Rain 57 13.9 54 12.2 90 90 ENE 13 20 29.84 1011 5 8.0467 0.09 2.286
6:32 am 06:32 Cloudy with Light Rain 57 13.9 54 12.2 90 90 ENE 10 17 29.83 1010 4 6.43736 0.08 2.032
6:54 am 06:54 Cloudy with Light Rain 57 13.9 55 12.8 93 93 ENE 13 20 29.8 1009 4 6.43736 0.14 3.556
7:50 am 07:50 Cloudy with Heavy Rain 57 14 54 12 88 88 E 14 22 29.79 1009 2.5 4.02335 0.25 6.35
7:51 am 07:51 Cloudy with Heavy Rain 57 13.9 54 12.2 90 90 E 14 22 29.79 1009 2.5 4.02335 0.26 6.604
8:01 am 08:01 Cloudy with Rain 57 13.9 54 12.2 90 90 E 14 22 29.78 1008 2 3.21868 0.05 1.27
8:14 am 08:14 Cloudy with Rain 57 13.9 54 12.2 90 90 E 13 20 29.78 1008 1.75 2.816345 0.12 3.048
8:24 am 08:24 Cloudy with Light Rain 57 13.9 54 12.2 90 90 ENE 17 28 29.77 1008 2.5 4.02335 0.15 3.81
8:31 am 08:31 Cloudy with Light Rain 57 13.9 54 12.2 90 90 E 14 22 29.77 1008 4 6.43736 0.16 4.064
8:54 am 08:54 Cloudy with Light Rain 57 13.9 54 12.2 90 90 E 12 19 29.75 1008 5 8.0467 0.17 4.318
9:41 am 09:41 Cloudy with Heavy Rain 56 13.3 53 11.7 90 90 E 16 26 29.73 1007 1.75 2.816345 0.09 2.286
9:54 am 09:54 Cloudy with Rain 56 13.3 54 12.2 93 93 ENE 14 22 29.72 1007 2 3.21868 0.2 5.08
10:18 am 10:18 Cloudy with Heavy Rain 56 13.3 54 12.2 93 93 ENE 10 17 29.72 1006 1.75 2.816345 0.15 3.81
10:33 am 10:33 Cloudy with Rain 56 13.3 54 12.2 93 93 ENE 9 15 29.71 1006 2.5 4.02335 0.19 4.826
10:54 am 10:54 Cloudy with Rain 56 13.3 54 12.2 93 93 NE 9 15 29.7 1006 2 3.21868 0.32 8.128
11:54 am 11:54 Cloudy with Heavy Rain 56 13.3 54 12.2 93 93 NE 8 13 29.65 1004 2 3.21868 0.26 6.604
12:01 pm 12:01 Cloudy with Heavy Rain 56 13.3 54 12.2 93 93 ENE 10 17 29.64 1004 1.5 2.41401 0.06 1.524
12:31 pm 12:31 Cloudy with Rain 57 13.9 55 12.8 93 93 NE 8 13 29.61 1003 2 3.21868 0.18 4.572
12:52 pm 12:52 Cloudy with Rain 57 14 55 13 94 94 ENE 9 15 29.59 1002 2 3.21868 0.24 6.096
12:54 pm 12:54 Cloudy with Rain 57 13.9 55 12.8 93 93 ENE 10 17 29.58 1002 2 3.21868 0.25 6.35
1:54 pm 13:54 Cloudy with Rain 58 14.4 56 13.3 93 93 NE 7 11 29.49 999 1.5 2.41401 0.08 2.032
2:54 pm 14:54 Cloudy with Rain 59 15 57 13.9 93 93 NNE 8 13 29.41 996 1.5 2.41401 0.17 4.318
3:54 pm 15:54 Cloudy with Light Rain 60 15.6 58 14.4 93 93 N 7 11 29.36 994 1.5 2.41401 0.12 3.048
4:41 pm 16:41 Cloudy with Drizzle 59 15 56 13.3 90 90 NNW 10 17 29.39 995 4 6.43736 0.03 0.762
4:54 pm 16:54 Cloudy with Mist and Fog 59 15 55 12.8 87 87 NNW 13 20 29.4 996 5 8.0467 0.03 0.762
5:54 pm 17:54 Cloudy 56 13.3 53 11.7 90 90 NW 13 20 29.47 998 7 11.26538 0 0
6:46 pm 18:46 Cloudy 53 11.7 49 9.4 86 86 NNW 10 17 29.53 1000 10 16.0934 0 0
6:54 pm 18:54 Cloudy 53 11.7 49 9.4 86 86 NNW 10 17 29.53 1000 10 16.0934 0 0
7:54 pm 19:54 Cloudy with Light Rain 52 11.1 49 9.4 89 89 N 7 11 29.56 1001 2.5 4.02335 0.001 0.001
8:20 pm 20:20 Cloudy with Light Rain 52 11.1 49 9.4 89 89 NE 5 7 29.57 1001 3 4.82802 0.02 0.508
8:54 pm 20:54 Cloudy with Light Rain 52 11.1 49 9.4 89 89 NE 8 13 29.57 1002 3 4.82802 0.02 0.508
9:54 pm 21:54 Cloudy with Light Rain 51 10.6 49 9.4 92 92 N 7 11 29.59 1002 3 4.82802 0.02 0.508
10:28 pm 22:28 Cloudy with Light Rain 51 10.6 48 8.9 89 89 NNW 6 9 29.63 1003 3 4.82802 0.01 0.254
10:36 pm 22:36 Cloudy with Mist and Fog 51 10.6 48 8.9 89 89 NNW 7 11 29.63 1003 4 6.43736 0.01 0.254
10:54 pm 22:54 Cloudy with Mist and Fog 51 10.6 48 8.9 89 89 NNW 6 9 29.62 1003 5 8.0467 0.01 0.254
11:42 pm 23:42 Cloudy 51 10.6 47 8.3 86 86 N 8 13 29.63 1003 8 12.87472 0 0
11:54 pm 23:54 Cloudy 51 10.6 48 8.9 89 89 N 8 13 29.62 1003 10 16.0934 0 0

Powered by AerisWeather